Regional Weather Roundup
Issued by NWS Nashville, TN

Home | Current Version | Previous Version | Text Only | Print | Product List | Glossary On
Versions: 1 2 3 4 5 6 7 8 9 10 11 12 13 14 15 16 17 18 19 20 21 22 23 24 25 26 27 28 29 30 31 32 33 34 35 36 37 38 39 40 41 42 43 44 45 46 47 48 49 50
000
ASUS44 KOHX 250815
RWROHX
MIDDLE TENNESSEE HOURLY WEATHER ROUNDUP
NATIONAL WEATHER SERVICE NASHVILLE TN
300 AM CDT FRI APR 25 2014

NOTE: "FAIR" INDICATES FEW OR NO CLOUDS BELOW 12,000 FEET WITH
NO SIGNIFICANT WEATHER AND/OR OBSTRUCTIONS TO VISIBILITY.

* THESE REPORTS ARE NOT UNDER NWS QUALITY CONTROL AND MAY NOT
  REPORT WEATHER SUCH AS PRECIPITATION AND FOG.


TNZ005>011-023>034-057-059-062>066-078-080-250900
...NORTHERN MIDDLE TENNESSEE...

CITY           SKY/WX    TMP DP  RH WIND       PRES   REMARKS
BAXTER*          N/A     63  55  77 CALM        N/A
BRENTWOOD*       N/A     63  59  88 SW2         N/A
CASTALIAN SPRG   N/A     61  59  94 E1          N/A
CLARKSVILLE    CLOUDY    64  61  90 SW8       29.67R
COLUMBIA       CLOUDY    64  64 100 S6        29.70F
CROSSVILLE     CLOUDY    64  50  60 S6        29.79F
DICKSON        MOCLDY    63  61  94 SW12      29.69F
FAIRFIELD GLAD   N/A     61  54  77 S2          N/A
GLADEVILLE*      N/A     63  63 100 SE3         N/A
GOODLETTSVILLE   N/A     63  55  77 CALM        N/A
JOELTON*         N/A    N/A N/A N/A N5          N/A
KINGSTON SPGS*   N/A    N/A N/A N/A SW2         N/A
LAFAYETTE*       N/A     61  61 100 S3          N/A
LIVINGSTON     CLOUDY    59  57  92 SW7       29.75F
MONTEREY         N/A     59  57  94 CALM        N/A
NASHVILLE      CLOUDY    63  61  93 S7        29.70S
OLD HICKORY*     N/A     63  63 100 MISG        N/A
PEGRAM*          N/A    N/A N/A N/A S2          N/A
PORTLAND         N/A     61  59  94 S10       29.68F
SMYRNA         LGT RAIN  63  63 100 SW8       29.71F FOG
SPARTA         MOCLDY    61  59  94 S7        29.75F
SPRINGFIELD*     N/A     63  23  22 MISG        N/A
WHITE BLUFF*     N/A    N/A N/A N/A E1          N/A
$$
TNZ056-058-060-061-075>077-079-093>097-250900
...SOUTHERN MIDDLE TENNESSEE...

CITY           SKY/WX    TMP DP  RH WIND       PRES   REMARKS
BELLEVUE*        N/A    N/A N/A N/A CALM        N/A
CULLEOKA*        N/A     61  59  94 CALM        N/A
EAGLEVILLE*      N/A    N/A N/A N/A CALM        N/A
FAIRVIEW*        N/A    N/A N/A N/A CALM        N/A
FAYETTEVILLE   CLOUDY    63  61  93 S9        29.77F
HOHENWALD*       N/A     61  61 100 CALM        N/A
LEWISBURG      CLOUDY    63  61  93 S6        29.72F
MANCHESTER*      N/A    N/A N/A N/A S3          N/A
MCMINNVILLE    CLOUDY    64  62  93 S6        29.75F
MOUNT PLEASANT   N/A     63  63 100 CALM        N/A
MURFREESBORO   CLOUDY    62  61  97 VRB5      29.72F
SHELBYVILLE    CLOUDY    64  61  88 S9        29.74F
SPRING HILL*     N/A     63  63 100 CALM        N/A
TULLAHOMA      PTCLDY    63  59  88 S12       29.76F
WINCHESTER     CLOUDY    64  59  82 S5        29.78F
$$


...KEY TO REMARKS...
VSB - VISIBILITY IN MILES
WCI - WIND CHILL INDEX
HX  - HEAT INDEX




USA.gov is the U.S. government's official web portal to all federal, state and local government web resources and services.